[TLELIST] Archives

 

[list_settings.list_name] Current TLEs

April 22nd 2022 PST

HST 1 20580U 90037B 22111.61037345 .00002700 00000-0 14977-3 0 9990 2 20580 28.4692 185.3858 0002872 138.0103 337.8023 15.10314839557874 ISS (ZARYA) 1 25544U 98067A 22112.41355956 .00008531 00000-0 15624-3 0 9994 2 25544 51.6429 252.8108 0005220 47.1392 348.4573 15.50189238336536 CXO 1 25867U 99040B 22112.51491406 .00000913 00000-0 00000+0 0 9990 2 25867 46.8803 239.0290 8753387 232.0053 0.1821 0.37810183 22748 ____________________________________________________________________ These 2-Line ...Continue Reading

[list_settings.list_name] Current TLEs

April 21st 2022 PST

HST 1 20580U 90037B 22110.68847672 .00002585 00000-0 14292-3 0 9999 2 20580 28.4693 191.4921 0002899 128.7696 4.6328 15.10310074557476 ISS (ZARYA) 1 25544U 98067A 22111.39454714 .00008803 00000-0 16105-3 0 9999 2 25544 51.6428 257.8608 0005132 41.6208 63.4709 15.50171984336378 CXO 1 25867U 99040B 22112.51491406 .00000913 00000-0 00000+0 0 9990 2 25867 46.8803 239.0290 8753387 232.0053 0.1821 0.37810183 22748 ____________________________________________________________________ These 2-Line ...Continue Reading

[list_settings.list_name] Current TLEs

April 20th 2022 PST

HST 1 20580U 90037B 22109.56287545 .00002566 00000-0 14182-3 0 9998 2 20580 28.4695 198.9476 0002934 117.4917 3.7567 15.10304838557304 ISS (ZARYA) 1 25544U 98067A 22110.42568448 .00008621 00000-0 15799-3 0 9998 2 25544 51.6420 262.6619 0005081 35.3246 59.3729 15.50154116336229 CXO 1 25867U 99040B 22112.51491406 .00000913 00000-0 00000+0 0 9990 2 25867 46.8803 239.0290 8753387 232.0053 0.1821 0.37810183 22748 ____________________________________________________________________ These 2-Line ...Continue Reading

[list_settings.list_name] Current TLEs

April 19th 2022 PST

HST 1 20580U 90037B 22108.70306699 .00002400 00000-0 13194-3 0 9994 2 20580 28.4697 204.6425 0002952 108.8473 8.2720 15.10300482557173 ISS (ZARYA) 1 25544U 98067A 22109.44738591 .00006441 00000-0 12018-3 0 9995 2 25544 51.6427 267.5068 0004851 40.1116 351.5752 15.50134584336075 CXO 1 25867U 99040B 22107.22679692 .00001018 00000-0 00000-0 0 9995 2 25867 47.0551 239.3883 8747393 231.8584 0.1543 0.37811776 11566 ____________________________________________________________________ These 2-Line ...Continue Reading

[list_settings.list_name] Current TLEs

April 18th 2022 PST

HST 1 20580U 90037B 22108.29128536 .00002522 00000-0 13923-3 0 9995 2 20580 28.4697 207.3697 0002953 105.3665 288.4225 15.10298791557373 ISS (ZARYA) 1 25544U 98067A 22108.42590714 .00006682 00000-0 12442-3 0 9993 2 25544 51.6427 272.5697 0004875 36.6659 50.9354 15.50121356335910 CXO 1 25867U 99040B 22107.22679692 .00001018 00000-0 00000-0 0 9995 2 25867 47.0551 239.3883 8747393 231.8584 0.1543 0.37811776 11566 ____________________________________________________________________ These 2-Line ...Continue Reading

[list_settings.list_name] Current TLEs

April 17th 2022 PST

HST 1 20580U 90037B 22106.72656779 .00002639 00000-0 14620-3 0 9990 2 20580 28.4698 217.7330 0002979 90.5061 58.9410 15.10291548556879 ISS (ZARYA) 1 25544U 98067A 22106.94497041 .00009116 00000-0 16690-3 0 9991 2 25544 51.6441 279.9065 0004751 32.2489 65.6769 15.50102636335689 CXO 1 25867U 99040B 22107.22679692 .00001018 00000-0 00000-0 0 9995 2 25867 47.0551 239.3883 8747393 231.8584 0.1543 0.37811776 11566 ____________________________________________________________________ These 2-Line ...Continue Reading

[list_settings.list_name] Current TLEs

April 16th 2022 PST

HST 1 20580U 90037B 22105.73462534 .00002562 00000-0 14167-3 0 9995 2 20580 28.4696 224.3026 0002996 81.0143 64.5008 15.10285949556726 ISS (ZARYA) 1 25544U 98067A 22106.35949068 .00008299 00000-0 15276-3 0 9997 2 25544 51.6440 282.8081 0004794 29.9061 38.6669 15.50087764335598 CXO 1 25867U 99040B 22107.22679692 .00001018 00000-0 00000-0 0 9995 2 25867 47.0551 239.3883 8747393 231.8584 0.1543 0.37811776 11566 ____________________________________________________________________ These 2-Line ...Continue Reading

[list_settings.list_name] Current TLEs

April 15th 2022 PST

HST 1 20580U 90037B 22104.65479671 .00002639 00000-0 14630-3 0 9995 2 20580 28.4696 231.4544 0002979 70.8206 311.9973 15.10280839556562 ISS (ZARYA) 1 25544U 98067A 22105.21669113 .00006207 00000-0 11640-3 0 9999 2 25544 51.6446 288.4729 0005027 26.2318 140.9722 15.50061826335419 CXO 1 25867U 99040B 22107.22679692 .00001018 00000-0 00000-0 0 9995 2 25867 47.0551 239.3883 8747393 231.8584 0.1543 0.37811776 11566 ____________________________________________________________________ These 2-Line ...Continue Reading

[list_settings.list_name] Current TLEs

April 14th 2022 PST

HST 1 20580U 90037B 22104.08615693 .00002536 00000-0 14014-3 0 9990 2 20580 28.4695 235.2204 0002976 65.2888 99.6980 15.10277695556741 ISS (ZARYA) 1 25544U 98067A 22104.28142361 .00007976 00000-0 14731-3 0 9994 2 25544 51.6433 293.1068 0004827 21.1780 323.6005 15.50051963335266 CXO 1 25867U 99040B 22104.58164641 .00001109 00000-0 00000-0 0 9995 2 25867 47.1588 239.6146 8747473 231.7441 0.0588 0.37814264 11554 ____________________________________________________________________ These 2-Line ...Continue Reading

[list_settings.list_name] Current TLEs

April 13th 2022 PST

HST 1 20580U 90037B 22102.82325984 .00002806 00000-0 15623-3 0 9998 2 20580 28.4694 243.5850 0002964 52.5597 72.4515 15.10272570556551 ISS (ZARYA) 1 25544U 98067A 22103.01231331 .00040719 00000-0 71650-3 0 9995 2 25544 51.6431 299.3956 0005196 14.9914 83.2863 15.50040100335078 CXO 1 25867U 99040B 22104.58164641 .00001109 00000-0 00000-0 0 9995 2 25867 47.1588 239.6146 8747473 231.7441 0.0588 0.37814264 11554 ____________________________________________________________________ These 2-Line ...Continue Reading
  • This mailing list is a public mailing list - anyone may join or leave, at any time.
  • This mailing list is announce-only.

International Space Station (ISS) / Hubble Space Telescope (HST) / Chandra X-Ray Observatory Orbital Data via EMAIL

Privacy Policy:

Private list